sat.trackr.live / text

‹ back to catalog

SKYBEE-A02

NORAD 64544 · 2025-135S

PAYLOAD ACTIVE UNKNOWN

§ Identity

Operator
Country
GER
Launch date
2025-06-23
Launch site
AFWTR
Launch vehicle
Mass (kg)
RCS (m²)

External: N2YO · Heavens-Above · Gunter

§ Orbital elements

Epoch: 2026-09-21T21:17:47.404608Z

Period
94.70 min
Inclination
97.4813°
Eccentricity
0.0002508
Mean motion
15.20522624 rev/d
Perigee alt
502.5 km
Apogee alt
506.0 km
Semi-major
6,882.4 km
B*
8.4749e-5
RAAN
18.8926°
Arg perigee
135.6024°
Mean anomaly
224.5413°
Rev number
6,952

§ Raw data

SKYBEE-A021 64544U 25135S   26264.88735422  .00001784  00000+0  84749-4 0  99932 64544  97.4813  18.8926 0002508 135.6024 224.5413 15.20522624 69529

JSON: /api/v1/satellites/64544 · /tle

For live sub-satellite position, see the globe view (requires WebGL).

§ Visibility from observer

Set your observer location to see the next 7 days of passes ≥ 10°. The values pass through the URL so the page stays shareable.

No JS? Fill the form by hand. The geolocation button needs JavaScript.

§ Radio — SatNOGS DB

ModeDescriptionDownlinkUplink
FM Mode S - Transmitter 2.228 GHz
GMSK Mode U - GMSK2k4 401.050 MHz
FM Mode X - Transmitter 8.330 GHz
FM S-band telemetry 2.256 GHz

4 transmitters · refreshed weekly from db.satnogs.org